Weather in Naifaru

Maldives     5°26′35″N   73°21′58″E
temp.,
°C
wind,
m/s
gust,
m/s
humid.,
%
clouds,
%
prec.,
mm/h
press.,
hPa
HPBL,
m
10 august, wed
wed1023:00+27wnw588499 0.3 1009736
02:00+27w6779100 0.3 1008793
05:00+27w45797 0.3 1008701
08:00+27w568030 0.0 1009626
11:00+27w458096 0.0 1009659
14:00+27w348080 0.1 1007493
17:00+28wnw458096 0.1 1007635
20:00+27wnw458372 0.0 1008575
11 august, thu
thu1123:00+27wnw46835 0.0 1009638
02:00+27wnw568438 0.9 1008580
05:00+27w458338 1.9 1008433
08:00+27w4581100 0.6 1010515
11:00+27w3479100 0.6 1010588
14:00+28w337787 0.0 1008594
17:00+28w337723 0.0 1008624
20:00+27w23795 0.3 1009349
12 august, fri
fri1223:00+27wsw237958 0.8 1010362
02:00+27wsw228093 0.4 1009291
05:00+27wsw338026 0.8 1009371
08:00+27wsw347790 0.0 1011487
11:00+27wsw337611 0.0 1010514
14:00+27wnw33756 0.0 1008618
17:00+28wnw337417 0.0 1008669
20:00+27wnw237887 0.0 1010608
13 august, sat
sat1323:00+27nw227874 0.0 1011473
02:00+26wnw2282100 0.8 1009125
05:00+27w338098 0.9 1009554
08:00+26w3382100 1.2 1011203
11:00+27w337973 2.1 1010471
14:00+27w3477100 0.1 1008593
17:00+27w337594 0.1 1008643
20:00+27w2276100 0.0 1010526
14 august, sun
sun1423:00+27nw2377100 0.0 1011572
02:00+27nw448062 0.1 1008631
05:00+27wnw3480100 1.1 1008575
08:00+27wnw227914 0.3 1011330
11:00+27nw227922 0.9 1011418
14:00+27nw3377100 0.0 1009626
17:00+27nnw3375100 0.0 1009708
20:00+27nnw2377100 0.0 1010635